Wind_Speed
43 42 42 41 40 40 39 38 37 35 33 32 31 31 31 30 29 28 27 26 25 25 24 23 23 22 22 22 21 21 20 20 20 19 19 19 19 19 18 18 18 18 18
45 45 44 43 42 42 41 40 38 37 35 35 33 33 32 32 31 30 29 28 28 27 26 25 25 24 24 24 23 22 22 22 22 21 21 20 20 20 20 20 19 19 19
46 46 46 45 44 43 42 42 40 39 38 37 36 35 34 34 33 33 32 31 30 29 28 27 27 26 26 25 25 24 24 24 23 23 22 22 22 22 22 21 21 20 20
46 46 47 46 45 45 44 43 42 41 40 38 37 37 36 35 35 34 33 33 32 32 31 30 29 29 27 27 26 26 26 25 25 24 24 24 23 23 23 23 23 22 22
46 46 47 47 46 46 45 45 44 43 42 41 40 38 37 36 36 36 35 34 34 33 33 32 31 30 29 28 28 28 27 27 26 25 25 25 25 24 24 24 24 24 24
47 47 47 47 47 47 46 45 45 45 43 42 41 40 38 38 38 38 37 36 35 35 35 34 33 32 31 30 30 30 29 28 27 27 26 26 26 26 26 26 26 25 25
48 48 48 47 47 48 48 47 46 45 44 42 42 41 40 39 39 39 38 37 36 36 36 35 35 34 33 32 31 31 31 30 29 29 28 28 27 27 27 27 27 27 26
47 48 48 48 48 48 48 48 47 46 45 44 43 42 42 40 40 40 39 38 38 38 37 37 36 36 34 33 32 32 33 32 32 31 31 30 29 29 28 28 28 28 27
48 48 48 48 48 48 49 49 48 48 47 46 45 43 43 43 41 40 40 39 39 39 38 38 37 37 37 36 35 35 34 34 34 34 33 32 32 31 30 30 30 30 30
48 49 49 49 48 49 49 49 49 48 48 47 47 45 44 44 43 41 41 41 40 40 39 39 39 38 38 38 37 37 36 36 36 36 36 35 34 34 33 33 32 32 32
47 49 49 49 49 49 49 49 49 49 49 49 48 47 46 45 45 44 42 42 42 41 41 40 41 40 38 38 38 38 39 37 37 37 37 36 36 36 36 35 35 34 34
47 48 49 49 49 49 50 49 50 50 50 50 49 48 48 46 45 45 44 43 43 43 43 42 42 42 41 40 39 39 39 39 38 38 38 37 37 37 37 37 38 37 37
47 48 49 49 49 49 49 49 50 50 50 50 50 49 48 48 47 46 46 45 44 44 44 44 43 43 43 42 40 40 39 40 40 40 40 40 40 40 40 40 40 40 40
48 48 48 49 49 49 49 49 50 50 50 50 51 50 50 49 49 48 47 46 45 45 44 44 43 43 42 42 41 41 40 40 41 41 42 42 42 42 42 42 42 41 41
47 47 48 49 50 49 49 49 50 50 51 51 51 51 51 50 50 49 48 47 46 45 45 44 44 44 43 43 43 43 42 42 41 42 42 43 43 43 43 42 42 42 42
45 46 47 48 49 49 50 49 50 50 51 51 50 50 51 51 50 50 49 49 48 47 46 45 45 46 46 45 44 45 45 44 42 42 42 42 43 43 42 43 43 43 43
44 45 46 48 48 48 48 49 50 51 51 51 51 50 51 52 51 51 52 51 50 49 48 47 47 47 48 47 45 45 46 46 45 45 44 45 44 43 44 44 44 45 45
44 44 45 47 47 46 47 48 49 50 51 51 52 52 52 53 53 53 52 52 52 51 50 49 48 49 49 49 48 47 46 47 47 46 46 46 46 45 45 44 45 45 45
43 44 44 46 45 45 46 48 50 50 51 52 53 52 53 54 54 54 54 53 52 51 51 50 50 49 49 49 50 49 48 47 47 47 47 47 46 46 46 45 45 45 46
42 43 43 45 46 45 45 47 50 50 51 52 53 53 53 53 53 54 54 53 54 53 52 52 51 50 51 50 50 50 49 49 48 48 48 47 47 47 47 47 47 46 46
41 41 42 42 43 45 46 47 48 50 51 52 52 52 52 53 54 55 55 54 54 54 53 53 52 51 51 51 51 51 50 50 50 50 49 48 48 48 49 49 48 48 48
42 42 42 43 43 44 46 47 47 48 51 52 52 53 53 54 55 54 54 54 54 54 54 54 53 52 52 52 51 52 52 52 52 51 50 49 49 49 49 50 50 50 50
42 43 42 42 43 43 45 46 45 47 49 51 52 53 53 54 54 54 55 55 55 55 55 55 54 53 53 53 53 52 53 53 53 52 52 51 51 51 51 51 51 51 51
40 41 41 41 41 42 43 43 45 46 48 51 52 53 53 54 54 54 54 55 55 55 56 55 55 54 54 55 54 53 53 52 53 53 54 53 52 51 51 51 51 52 52
40 41 41 41 42 42 42 42 44 45 46 48 50 52 52 53 54 54 54 54 55 56 56 56 56 55 55 55 54 53 53 53 53 54 55 54 53 53 52 52 52 53 53
40 41 42 42 42 42 42 42 42 43 44 46 48 49 49 51 52 53 53 54 54 55 55 56 55 55 55 55 55 54 53 53 54 54 54 54 54 54 54 53 54 54 54
Wind_Direction
243 243 243 243 243 243 243 243 243 243 243 244 244 244 244 244 245 246 248 249 250 250 251 253 255 256 257 259 261 264 267 268 267 268 269 269 270 271 271 274 278 280 282
243 242 242 243 243 243 242 243 243 243 244 244 244 244 244 245 245 247 248 250 251 251 252 253 255 256 257 258 261 263 265 268 268 268 269 270 270 271 271 273 276 280 281
242 242 242 242 242 243 243 243 243 243 244 245 244 244 245 246 246 247 249 250 251 252 252 253 254 256 258 259 260 261 263 265 267 268 268 269 270 270 271 272 274 277 280
242 241 241 241 242 243 242 243 243 243 243 244 245 245 245 245 247 248 248 250 250 251 252 253 254 255 257 258 259 260 261 264 264 266 268 270 271 271 271 272 273 274 278
241 241 242 241 241 242 243 242 242 243 244 245 246 245 245 246 247 248 249 249 250 251 252 253 254 254 256 257 258 258 259 261 262 264 266 269 270 271 271 272 273 275 278
241 241 241 242 241 242 242 242 243 243 244 245 246 246 246 246 247 248 249 249 249 251 251 251 252 253 255 257 257 257 258 260 260 262 264 266 268 269 270 272 274 275 277
242 241 241 242 242 242 242 242 243 243 243 244 246 246 245 246 247 247 248 248 249 250 250 250 251 252 254 256 256 256 257 259 260 261 262 265 266 267 269 271 274 274 275
242 242 241 242 243 243 242 243 243 243 244 245 246 246 246 246 247 247 248 248 249 250 250 249 250 251 252 255 255 256 257 259 260 260 262 263 265 266 268 269 272 274 275
242 242 241 242 242 242 243 244 244 243 243 244 245 246 247 246 247 248 248 249 249 250 250 250 250 252 253 254 255 256 258 260 259 259 261 263 264 265 266 268 270 272 273
243 242 241 242 242 243 244 244 244 243 243 244 245 247 247 247 247 248 248 249 249 249 248 249 249 250 252 254 255 256 257 259 260 259 260 262 264 265 267 268 269 270 271
242 242 240 241 242 242 243 243 242 242 243 245 245 246 247 247 247 248 248 249 250 249 248 248 248 249 250 252 253 256 257 258 261 261 261 261 263 265 266 267 268 270 271
243 242 241 241 242 242 243 244 243 243 244 245 245 245 246 247 247 248 249 249 250 250 249 248 248 248 249 252 254 256 256 257 259 261 262 263 263 264 265 267 268 269 270
245 243 241 241 241 241 243 244 243 243 244 244 244 244 245 246 247 247 248 248 249 250 250 249 250 249 250 252 254 255 255 256 259 262 264 264 264 265 266 267 268 269 269
245 244 243 243 241 241 243 243 243 243 244 244 243 244 245 245 246 247 247 248 248 248 249 250 250 250 250 251 253 255 257 257 259 263 265 265 265 266 266 267 267 268 268
245 244 243 242 242 242 242 243 243 242 243 244 243 244 244 245 245 246 246 246 247 247 248 250 250 251 251 252 253 255 257 259 260 262 263 265 265 267 266 265 266 267 268
245 244 243 243 243 243 243 243 243 243 243 243 243 243 243 244 244 244 244 245 246 247 248 250 251 252 252 253 255 257 258 259 261 262 263 264 265 265 265 264 265 266 268
245 244 244 244 243 244 244 243 243 243 243 242 242 243 243 243 243 244 244 245 247 248 249 250 252 253 253 254 256 258 258 258 260 261 263 264 265 265 265 265 266 267 267
245 245 246 245 244 245 245 244 244 243 242 242 242 242 243 243 244 244 245 247 247 248 249 250 252 253 253 254 256 258 259 258 260 261 263 264 264 265 265 265 265 266 267
247 246 247 246 245 246 246 245 244 243 243 242 242 242 243 244 245 245 246 247 248 249 249 251 252 254 254 255 257 258 259 260 260 261 263 263 264 265 266 266 266 267 268
248 247 248 247 247 247 247 247 246 244 243 242 242 244 244 245 246 246 247 248 249 249 250 251 252 253 254 255 257 258 259 260 260 261 263 264 264 265 267 268 268 268 268
247 247 248 248 248 248 248 249 247 245 244 244 244 244 245 245 246 247 248 249 250 250 251 251 252 254 255 255 257 259 259 260 260 262 263 263 264 265 267 268 268 268 269
248 249 250 249 250 250 250 250 248 247 246 245 246 246 245 246 246 247 247 248 249 251 251 252 252 255 255 255 257 259 260 261 262 262 264 264 265 265 267 267 267 268 268
249 250 251 252 252 252 251 249 249 249 247 247 246 246 246 246 246 248 249 249 250 251 252 252 253 254 255 256 257 259 260 262 263 263 264 265 266 267 267 268 267 267 267
251 253 254 254 254 253 251 252 252 251 249 247 246 247 247 247 247 247 249 250 251 252 253 253 254 254 255 257 258 259 260 262 263 265 266 266 267 267 267 267 267 267 267
255 256 256 255 255 254 254 254 254 253 249 247 247 247 247 247 247 248 249 250 251 252 252 253 253 254 255 257 258 260 261 262 264 265 266 266 266 266 267 267 267 267 267
260 260 259 257 257 255 255 255 255 253 251 249 248 247 247 248 248 249 250 251 252 252 252 253 254 256 257 258 259 261 263 264 265 265 265 266 266 266 266 266 267 268 268
Height
5764 5768 5772 5775 5777 5780 5783 5785 5788 5790 5793 5795 5797 5799 5801 5803 5805 5806 5808 5809 5810 5811 5812 5813 5814 5815 5816 5817 5818 5818 5819 5819 5819 5819 5819 5819 5819 5819 5819 5819 5818 5818 5818
5754 5758 5762 5765 5768 5771 5774 5777 5780 5783 5785 5787 5790 5792 5794 5796 5798 5800 5801 5803 5804 5805 5806 5807 5808 5809 5810 5811 5812 5813 5814 5814 5814 5815 5815 5815 5815 5815 5815 5815 5814 5814 5813
5743 5747 5751 5755 5759 5762 5765 5768 5771 5774 5777 5779 5782 5784 5787 5789 5791 5793 5794 5796 5797 5799 5800 5801 5802 5803 5804 5806 5807 5807 5808 5808 5809 5809 5809 5810 5810 5810 5810 5810 5810 5809 5809
5731 5736 5740 5744 5748 5752 5755 5758 5762 5765 5768 5771 5774 5776 5778 5781 5783 5785 5787 5789 5790 5792 5793 5795 5796 5797 5798 5799 5800 5801 5802 5802 5803 5804 5804 5804 5805 5805 5805 5805 5804 5804 5804
5720 5724 5729 5733 5738 5742 5745 5749 5752 5756 5759 5762 5765 5767 5770 5772 5775 5777 5779 5781 5783 5784 5786 5787 5789 5791 5792 5793 5794 5795 5796 5797 5797 5798 5798 5799 5799 5799 5799 5799 5799 5799 5798
5709 5713 5717 5722 5727 5731 5734 5738 5742 5745 5749 5752 5755 5758 5761 5763 5766 5768 5770 5773 5775 5776 5778 5780 5782 5783 5785 5786 5787 5788 5789 5790 5791 5791 5792 5793 5793 5793 5793 5793 5793 5793 5793
5697 5701 5706 5710 5715 5719 5723 5727 5731 5734 5738 5741 5744 5748 5751 5753 5756 5759 5761 5764 5766 5768 5770 5772 5774 5776 5777 5779 5780 5781 5782 5783 5784 5785 5785 5786 5787 5787 5787 5787 5787 5787 5786
5685 5689 5693 5698 5703 5707 5712 5716 5720 5723 5727 5731 5734 5737 5741 5744 5746 5749 5752 5754 5757 5759 5761 5763 5766 5767 5769 5771 5772 5773 5775 5776 5776 5777 5778 5779 5780 5780 5780 5780 5780 5780 5780
5672 5677 5681 5686 5690 5695 5700 5704 5708 5712 5716 5720 5724 5727 5731 5734 5737 5740 5742 5745 5747 5750 5752 5754 5757 5759 5761 5762 5764 5765 5767 5768 5768 5769 5770 5771 5772 5772 5773 5773 5773 5773 5773
5660 5664 5669 5674 5678 5683 5687 5692 5696 5700 5705 5709 5713 5717 5721 5724 5727 5730 5733 5735 5738 5740 5742 5745 5748 5750 5752 5753 5755 5756 5758 5759 5760 5761 5762 5763 5763 5764 5764 5765 5765 5765 5765
5647 5652 5656 5661 5665 5670 5675 5679 5684 5688 5693 5698 5702 5706 5710 5713 5716 5720 5723 5726 5728 5730 5732 5735 5737 5740 5742 5744 5745 5747 5748 5750 5751 5752 5753 5754 5754 5755 5755 5756 5756 5756 5756
5635 5639 5643 5648 5653 5658 5663 5667 5672 5677 5681 5686 5690 5694 5698 5702 5705 5709 5712 5715 5717 5719 5722 5724 5727 5729 5732 5734 5736 5737 5739 5740 5741 5742 5744 5744 5745 5745 5745 5746 5746 5746 5746
5623 5626 5630 5636 5640 5645 5650 5655 5659 5664 5669 5673 5678 5683 5686 5690 5694 5697 5701 5704 5706 5709 5711 5713 5716 5719 5721 5723 5725 5727 5728 5730 5731 5732 5733 5734 5734 5735 5735 5735 5736 5736 5736
5610 5613 5618 5623 5627 5632 5637 5642 5646 5651 5656 5661 5666 5670 5674 5678 5682 5686 5689 5692 5695 5698 5700 5703 5705 5708 5710 5713 5715 5717 5718 5719 5720 5721 5722 5723 5723 5723 5724 5724 5724 5724 5724
5597 5600 5605 5609 5614 5619 5624 5628 5633 5638 5643 5648 5653 5658 5662 5666 5670 5674 5677 5681 5684 5687 5690 5692 5695 5697 5699 5702 5704 5706 5707 5708 5709 5710 5711 5711 5711 5712 5712 5712 5712 5713 5713
5585 5589 5593 5597 5602 5606 5611 5615 5620 5625 5630 5635 5640 5645 5649 5654 5658 5661 5665 5669 5672 5676 5679 5682 5684 5686 5688 5690 5692 5694 5695 5697 5697 5698 5699 5699 5699 5699 5700 5700 5700 5701 5701
5573 5577 5580 5584 5589 5593 5598 5602 5607 5611 5616 5621 5627 5632 5637 5641 5645 5649 5653 5656 5660 5664 5667 5670 5672 5674 5676 5678 5680 5682 5683 5684 5685 5686 5687 5687 5687 5687 5687 5688 5688 5689 5689
5562 5566 5569 5573 5577 5581 5585 5589 5593 5598 5602 5608 5614 5619 5624 5628 5632 5636 5640 5644 5648 5651 5655 5658 5660 5662 5664 5666 5668 5669 5671 5672 5673 5674 5674 5674 5674 5675 5675 5675 5676 5676 5677
5551 5554 5558 5562 5565 5569 5572 5576 5581 5585 5589 5595 5600 5606 5611 5615 5619 5623 5627 5631 5635 5638 5641 5645 5647 5649 5651 5652 5655 5656 5658 5659 5660 5661 5661 5662 5662 5662 5662 5663 5663 5663 5664
5541 5544 5548 5551 5554 5557 5561 5564 5568 5572 5577 5582 5587 5592 5597 5602 5606 5610 5614 5618 5621 5625 5628 5631 5634 5635 5637 5639 5641 5643 5645 5646 5647 5647 5648 5649 5649 5649 5650 5650 5650 5650 5651
5531 5534 5537 5540 5543 5546 5549 5552 5556 5560 5565 5569 5574 5579 5583 5588 5592 5596 5600 5604 5607 5610 5614 5617 5620 5622 5624 5626 5628 5630 5631 5632 5633 5634 5635 5636 5636 5637 5636 5636 5636 5636 5637
5521 5523 5526 5529 5532 5535 5537 5540 5544 5548 5552 5556 5561 5565 5569 5573 5577 5581 5585 5589 5593 5596 5599 5603 5606 5609 5611 5613 5614 5615 5617 5619 5621 5622 5622 5623 5623 5623 5623 5623 5623 5622 5623
5511 5513 5516 5518 5521 5523 5525 5528 5531 5534 5538 5542 5546 5551 5555 5559 5563 5567 5570 5574 5578 5581 5585 5589 5592 5595 5597 5599 5600 5602 5603 5604 5606 5606 5607 5609 5609 5609 5609 5609 5608 5608 5608
5501 5503 5505 5507 5509 5511 5513 5515 5518 5520 5524 5528 5532 5536 5540 5544 5548 5552 5555 5559 5562 5566 5570 5574 5578 5581 5582 5583 5585 5587 5588 5589 5591 5591 5591 5594 5595 5595 5595 5594 5594 5594 5594
5491 5492 5494 5496 5498 5499 5501 5503 5505 5507 5511 5514 5518 5522 5526 5530 5534 5537 5541 5545 5548 5551 5554 5558 5561 5564 5566 5568 5569 5571 5573 5574 5576 5577 5577 5578 5579 5580 5580 5580 5579 5578 5578
5481 5482 5483 5484 5486 5487 5488 5490 5492 5495 5498 5502 5505 5508 5512 5515 5519 5521 5525 5529 5533 5537 5540 5543 5545 5548 5550 5552 5554 5555 5557 5559 5560 5562 5562 5562 5563 5563 5565 5566 5564 5563 5563